TDRS 11

Last updated on Thu Aug 13 2026 00:02:53 GMT+0000 (Coordinated Universal Time)

1 39070U 13004A 26224.62661465 .00000062 00000+0 00000+0 0 9995 2 39070 3.6046 32.1053 0004314 35.8362 304.2832 1.00273209 47257
UTC large
Height (km)
Speed (km/s)
/
Latitude / Longitude
Inclination (degrees)
Orbital Period (minutes)
Azimuth
Elevation
Range (km)
Doppler Factor

Next 0 passes for location: London (51.5072 / 0.1276)

No passes found over London.
TDRS 11